sat.trackr.live / text

‹ back to catalog

STARLINK-35680

NORAD 66610 · 2025-270Y

PAYLOAD ACTIVE UNKNOWN

§ Identity

Operator
Country
US
Launch date
2025-11-22
Launch site
AFETR
Launch vehicle
Mass (kg)
RCS (m²)

Purposes: comms

External: N2YO · Heavens-Above · Gunter

§ Orbital elements

Epoch: 2026-09-20T09:30:56.981376Z

Period
94.27 min
Inclination
42.9995°
Eccentricity
0.0001432
Mean motion
15.27579982 rev/d
Perigee alt
482.1 km
Apogee alt
484.0 km
Semi-major
6,861.2 km
B*
4.7578e-4
RAAN
36.5842°
Arg perigee
276.1098°
Mean anomaly
83.9590°
Rev number
4,759

§ Raw data

STARLINK-356801 66610U 25270Y   26263.39649284  .00012853  00000+0  47578-3 0  99912 66610  42.9995  36.5842 0001432 276.1098  83.9590 15.27579982 47594

JSON: /api/v1/satellites/66610 · /tle

For live sub-satellite position, see the globe view (requires WebGL).

§ Visibility from observer

Set your observer location to see the next 7 days of passes ≥ 10°. The values pass through the URL so the page stays shareable.

No JS? Fill the form by hand. The geolocation button needs JavaScript.